This is the latest recevied weather packets stored in our database for station/object N0MR. If no packets are shown the sender has not sent any weather packets the latest 10 day(s).
| Time | Temp. | Humidity | Pressure | Rain* | Wind** | Luminosity | Snow |
|---|---|---|---|---|---|---|---|
| 1777872116 | 13.89° C | 36% | 995 hPa | 0 mm | - | - | - |
| 1777871517 | 13.89° C | 36% | 995 hPa | 0 mm | - | - | - |
| 1777870917 | 13.89° C | 36% | 995.4 hPa | 0 mm | - | - | - |
| 1777870317 | 13.89° C | 36% | 995.4 hPa | 0 mm | - | - | - |
| 1777869716 | 13.33° C | 36% | 995.9 hPa | 0 mm | - | - | - |
| 1777869117 | 13.89° C | 36% | 996.4 hPa | 0 mm | - | - | - |
| 1777868516 | 13.89° C | 36% | 996.4 hPa | 0 mm | - | - | - |
| 1777867917 | 13.33° C | 37% | 997.1 hPa | 0 mm | - | - | - |
| 1777867317 | 13.33° C | 37% | 997.1 hPa | 0 mm | - | - | - |
| 1777866718 | 12.22° C | 39% | 997.7 hPa | 0 mm | - | - | - |
| 1777866118 | 12.22° C | 39% | 997.7 hPa | 0 mm | - | - | - |
| 1777865516 | 11.67° C | 41% | 998.2 hPa | 0 mm | - | - | - |
| 1777864916 | 11.67° C | 41% | 998.2 hPa | 0 mm | - | - | - |
| 1777864318 | 11.67° C | 42% | 998.6 hPa | 0 mm | - | - | - |
| 1777863717 | 11.67° C | 42% | 998.6 hPa | 0 mm | - | - | - |
| 1777863118 | 11.11° C | 42% | 998.9 hPa | 0 mm | - | - | - |
| 1777862517 | 11.11° C | 42% | 998.9 hPa | 0 mm | - | - | - |
| 1777861917 | 11.11° C | 43% | 999.1 hPa | 0 mm | - | - | - |
| 1777861317 | 11.11° C | 43% | 999.1 hPa | 0 mm | - | - | - |
| 1777860717 | 11.67° C | 41% | 999.5 hPa | 0 mm | - | - | - |
| 1777860118 | 11.67° C | 41% | 999.5 hPa | 0 mm | - | - | - |
| 1777859518 | 12.78° C | 39% | 999.8 hPa | 0 mm | - | - | - |
| 1777858918 | 12.78° C | 39% | 999.8 hPa | 0 mm | - | - | - |
| 1777858317 | 13.89° C | 36% | 1000.2 hPa | 0 mm | - | - | - |
| 1777857718 | 14.44° C | 34% | 1000.5 hPa | 0 mm | - | - | - |
* Rain latest hour (hover to see other rain measurements)
** Current wind speed in m/s (hover to see current wind gust speed)